Location: Tamazert
(32.6352°N, 5.2072°W)
Time: 08:34:47
(UTC+00:00)

Courier 1B Rocket - Pass Details

Date: 09 October 2022
Orbit: 920 x 1202 km, 28.3° (Epoch: 01 December)

Event Time Altitude Azimuth Distance (km) Brightness Sun altitude
Rises 18:50:44 0° 265° (W) 3,916 10.2 -12.5°
Reaches altitude 10° 18:53:36 10° 262° (W) 2,915 8.9 -13.1°
Maximum altitude 19:00:35 60° 184° (S) 1,155 5.4 -14.5°
Enters shadow 19:05:09 20° 111° (ESE) 2,081 6.2 -15.5°
